Location: Unspecified
(58.9933°N, 5.6375°E)
Time: 01:10:41
(UTC+01:00)

Okean 3 - Visible Passes

Search period start: 28 November 2014 00:00
Search period end: 08 December 2014 00:00
Orbit: 581 x 610 km, 82.5° (Epoch: 27 November)

Date Brightness Start Highest point End Pass type
(mag) Time Alt. Az. Time Alt. Az. Time Alt. Az.
28 Nov 4.6 17:43:51 10° SW 17:47:54 44° WNW 17:51:58 10° N visible
28 Nov 6.5 19:25:35 10° WNW 19:26:28 11° NW 19:27:20 10° NNW visible
29 Nov 5.1 17:54:09 10° SW 17:57:59 33° WNW 18:01:49 10° N visible
30 Nov 5.6 18:04:34 10° WSW 18:08:05 25° WNW 18:11:37 10° N visible
01 Dec 3.5 16:36:02 10° S 16:40:16 84° ESE 16:44:30 10° NNE visible
01 Dec 5.9 18:15:09 10° WSW 18:18:14 19° WNW 18:21:20 10° N visible
02 Dec 3.7 16:46:01 10° SSW 16:50:13 71° WNW 16:54:27 10° N visible
02 Dec 6.1 18:25:55 10° W 18:28:26 15° NW 18:30:56 10° NNW visible
03 Dec 4.3 16:56:06 10° SSW 17:00:13 51° WNW 17:04:21 10° N visible
03 Dec 6.3 18:37:01 10° WNW 18:38:39 12° NW 18:40:17 10° NNW visible
04 Dec 4.8 17:06:18 10° SW 17:10:15 38° WNW 17:14:12 10° N visible
05 Dec 5.3 17:16:38 10° WSW 17:20:18 28° WNW 17:24:00 10° N visible
06 Dec 5.6 17:27:06 10° WSW 17:30:25 22° WNW 17:33:44 10° N visible
07 Dec 5.9 17:37:44 10° W 17:40:33 17° NW 17:43:23 10° NNW visible
